Time,TemperatureF,DewpointF,PressureIn,WindDirection,WindDirectionDegrees,WindSpeedMPH,WindSpeedGustMPH,Humidity,HourlyPrecipIn,Conditions,Clouds,dailyrainin,SoftwareType,DateUTC
2013-02-24 00:04:00,11.5,8.9,30.00,WSW,242,0.0,1.0,89,0.00,,,0.00,Wunderground v.1.15,2013-02-24 06:04:00,
2013-02-24 00:10:00,11.9,9.5,30.00,WSW,242,0.0,0.0,90,0.00,,,0.00,Wunderground v.1.15,2013-02-24 06:10:00,
2013-02-24 00:16:00,12.1,9.7,30.00,WSW,242,0.0,0.0,90,0.00,,,0.00,Wunderground v.1.15,2013-02-24 06:16:00,
2013-02-24 00:22:00,12.6,10.5,30.00,WSW,242,0.0,0.0,91,0.00,,,0.00,Wunderground v.1.15,2013-02-24 06:22:00,
2013-02-24 00:28:00,13.0,10.6,30.00,WSW,242,0.0,0.0,90,0.00,,,0.00,Wunderground v.1.15,2013-02-24 06:28:00,
2013-02-24 00:34:00,12.6,10.0,30.00,WSW,242,0.0,0.0,89,0.00,,,0.00,Wunderground v.1.15,2013-02-24 06:34:00,
2013-02-24 00:40:00,12.8,10.4,30.00,WSW,242,0.0,0.0,90,0.00,,,0.00,Wunderground v.1.15,2013-02-24 06:40:00,
2013-02-24 00:46:00,12.8,10.4,30.00,WSW,242,0.0,0.0,90,0.00,,,0.00,Wunderground v.1.15,2013-02-24 06:46:00,
2013-02-24 00:52:00,12.2,9.3,30.01,WSW,242,0.0,0.0,88,0.00,,,0.00,Wunderground v.1.15,2013-02-24 06:52:00,
2013-02-24 00:58:00,11.8,8.9,30.01,WSW,242,0.0,0.0,88,0.00,,,0.00,Wunderground v.1.15,2013-02-24 06:58:00,
2013-02-24 01:04:00,11.4,8.5,30.01,WSW,242,0.0,0.0,88,0.00,,,0.00,Wunderground v.1.15,2013-02-24 07:04:00,
2013-02-24 01:10:00,11.2,8.6,30.01,WSW,242,1.0,1.0,89,0.00,,,0.00,Wunderground v.1.15,2013-02-24 07:10:00,
2013-02-24 01:16:00,11.0,8.4,30.01,WSW,242,1.0,1.0,89,0.00,,,0.00,Wunderground v.1.15,2013-02-24 07:16:00,
2013-02-24 01:21:00,10.7,8.1,30.01,WSW,242,0.0,0.0,89,0.00,,,0.00,Wunderground v.1.15,2013-02-24 07:21:00,
2013-02-24 01:28:00,10.7,8.1,30.01,WSW,242,0.0,0.0,89,0.00,,,0.00,Wunderground v.1.15,2013-02-24 07:28:00,
2013-02-24 01:34:00,11.6,9.2,30.02,WSW,242,0.0,0.0,90,0.00,,,0.00,Wunderground v.1.15,2013-02-24 07:34:00,
2013-02-24 01:40:00,11.1,8.5,30.02,WSW,242,0.0,0.0,89,0.00,,,0.00,Wunderground v.1.15,2013-02-24 07:40:00,
2013-02-24 01:46:00,10.9,8.3,30.02,WSW,242,0.0,0.0,89,0.00,,,0.00,Wunderground v.1.15,2013-02-24 07:46:00,
2013-02-24 01:52:00,10.6,7.7,30.02,WSW,242,0.0,0.0,88,0.00,,,0.00,Wunderground v.1.15,2013-02-24 07:52:00,
2013-02-24 01:58:00,10.7,8.1,30.02,WSW,242,1.0,2.0,89,0.00,,,0.00,Wunderground v.1.15,2013-02-24 07:58:00,
2013-02-24 02:04:00,10.4,7.8,30.02,WSW,242,2.0,3.0,89,0.00,,,0.00,Wunderground v.1.15,2013-02-24 08:04:00,
2013-02-24 02:10:00,10.3,7.7,30.02,WSW,242,3.0,3.0,89,0.00,,,0.00,Wunderground v.1.15,2013-02-24 08:10:00,
2013-02-24 02:16:00,10.6,8.2,30.02,WSW,242,3.0,4.0,90,0.00,,,0.00,Wunderground v.1.15,2013-02-24 08:16:00,
2013-02-24 02:22:00,11.1,8.7,30.02,WSW,242,4.0,4.0,90,0.00,,,0.00,Wunderground v.1.15,2013-02-24 08:22:00,
2013-02-24 02:28:00,11.3,8.9,30.02,WSW,242,3.0,4.0,90,0.00,,,0.00,Wunderground v.1.15,2013-02-24 08:28:00,
2013-02-24 02:34:00,12.3,10.2,30.02,West,267,3.0,4.0,91,0.00,,,0.00,Wunderground v.1.15,2013-02-24 08:34:00,
2013-02-24 02:40:00,12.9,10.5,30.02,West,267,3.0,3.0,90,0.00,,,0.00,Wunderground v.1.15,2013-02-24 08:40:00,
2013-02-24 02:46:00,13.2,10.8,30.02,West,267,2.0,3.0,90,0.00,,,0.00,Wunderground v.1.15,2013-02-24 08:46:00,
2013-02-24 02:52:00,13.4,11.0,30.01,West,267,2.0,2.0,90,0.00,,,0.00,Wunderground v.1.15,2013-02-24 08:52:00,
2013-02-24 02:58:00,12.5,9.6,30.02,West,267,1.0,2.0,88,0.00,,,0.00,Wunderground v.1.15,2013-02-24 08:58:00,
2013-02-24 03:04:00,11.6,8.5,30.02,West,267,0.0,1.0,87,0.00,,,0.00,Wunderground v.1.15,2013-02-24 09:04:00,
2013-02-24 03:10:00,11.0,7.9,30.02,West,267,1.0,2.0,87,0.00,,,0.00,Wunderground v.1.15,2013-02-24 09:10:00,
2013-02-24 03:16:00,10.9,8.0,30.02,West,267,1.0,2.0,88,0.00,,,0.00,Wunderground v.1.15,2013-02-24 09:16:00,
2013-02-24 03:22:00,11.1,8.5,30.03,West,267,1.0,1.0,89,0.00,,,0.00,Wunderground v.1.15,2013-02-24 09:22:00,
2013-02-24 03:28:00,11.4,9.0,30.03,West,267,0.0,1.0,90,0.00,,,0.00,Wunderground v.1.15,2013-02-24 09:28:00,
2013-02-24 03:34:00,12.7,10.6,30.03,West,267,1.0,3.0,91,0.00,,,0.00,Wunderground v.1.15,2013-02-24 09:34:00,
2013-02-24 03:40:00,12.7,10.1,30.03,West,267,2.0,2.0,89,0.00,,,0.00,Wunderground v.1.15,2013-02-24 09:40:00,
2013-02-24 03:46:00,12.7,10.3,30.03,West,267,1.0,2.0,90,0.00,,,0.00,Wunderground v.1.15,2013-02-24 09:46:00,
2013-02-24 03:52:00,12.2,9.3,30.03,West,267,0.0,0.0,88,0.00,,,0.00,Wunderground v.1.15,2013-02-24 09:52:00,
2013-02-24 03:57:00,12.1,9.5,30.03,West,267,0.0,0.0,89,0.00,,,0.00,Wunderground v.1.15,2013-02-24 09:57:00,
2013-02-24 04:04:00,11.7,8.8,30.03,West,267,0.0,0.0,88,0.00,,,0.00,Wunderground v.1.15,2013-02-24 10:04:00,
2013-02-24 04:10:00,11.1,8.0,30.03,West,267,0.0,0.0,87,0.00,,,0.00,Wunderground v.1.15,2013-02-24 10:10:00,
2013-02-24 04:16:00,10.6,7.5,30.03,West,267,0.0,0.0,87,0.00,,,0.00,Wunderground v.1.15,2013-02-24 10:16:00,
2013-02-24 04:22:00,10.3,7.2,30.04,West,267,0.0,0.0,87,0.00,,,0.00,Wunderground v.1.15,2013-02-24 10:22:00,
2013-02-24 04:28:00,9.7,6.4,30.04,West,267,0.0,0.0,86,0.00,,,0.00,Wunderground v.1.15,2013-02-24 10:28:00,
2013-02-24 04:34:00,9.6,6.5,30.05,West,267,0.0,0.0,87,0.00,,,0.00,Wunderground v.1.15,2013-02-24 10:34:00,
2013-02-24 04:40:00,9.4,6.6,30.05,West,267,0.0,0.0,88,0.00,,,0.00,Wunderground v.1.15,2013-02-24 10:40:00,
2013-02-24 04:46:00,9.4,6.6,30.05,West,267,0.0,0.0,88,0.00,,,0.00,Wunderground v.1.15,2013-02-24 10:46:00,
2013-02-24 04:51:00,9.0,5.9,30.06,West,267,0.0,0.0,87,0.00,,,0.00,Wunderground v.1.15,2013-02-24 10:51:00,
2013-02-24 04:58:00,9.1,6.5,30.06,West,267,0.0,0.0,89,0.00,,,0.00,Wunderground v.1.15,2013-02-24 10:58:00,
2013-02-24 05:04:00,9.5,7.2,30.06,West,267,0.0,0.0,90,0.00,,,0.00,Wunderground v.1.15,2013-02-24 11:04:00,
2013-02-24 05:10:00,9.3,6.7,30.06,West,267,0.0,0.0,89,0.00,,,0.00,Wunderground v.1.15,2013-02-24 11:10:00,
2013-02-24 05:16:00,8.5,5.4,30.06,West,267,0.0,0.0,87,0.00,,,0.00,Wunderground v.1.15,2013-02-24 11:16:00,
2013-02-24 05:22:00,8.6,6.0,30.06,West,267,0.0,0.0,89,0.00,,,0.00,Wunderground v.1.15,2013-02-24 11:22:00,
2013-02-24 05:28:00,8.4,5.6,30.07,West,267,0.0,1.0,88,0.00,,,0.00,Wunderground v.1.15,2013-02-24 11:28:00,
2013-02-24 05:34:00,8.5,5.9,30.07,West,267,0.0,1.0,89,0.00,,,0.00,Wunderground v.1.15,2013-02-24 11:34:00,
2013-02-24 05:40:00,8.7,6.1,30.07,West,267,0.0,0.0,89,0.00,,,0.00,Wunderground v.1.15,2013-02-24 11:40:00,
2013-02-24 05:46:00,9.1,6.8,30.08,West,267,0.0,0.0,90,0.00,,,0.00,Wunderground v.1.15,2013-02-24 11:46:00,
2013-02-24 05:52:00,9.8,7.5,30.09,West,267,0.0,0.0,90,0.00,,,0.00,Wunderground v.1.15,2013-02-24 11:52:00,
2013-02-24 05:58:00,10.3,8.0,30.09,West,267,0.0,0.0,90,0.00,,,0.00,Wunderground v.1.15,2013-02-24 11:58:00,
2013-02-24 06:04:00,11.3,9.2,30.09,West,267,1.0,2.0,91,0.00,,,0.00,Wunderground v.1.15,2013-02-24 12:04:00,
2013-02-24 06:10:00,11.7,9.6,30.09,West,267,1.0,1.0,91,0.00,,,0.00,Wunderground v.1.15,2013-02-24 12:10:00,
2013-02-24 06:15:00,11.5,8.9,30.09,West,267,0.0,1.0,89,0.00,,,0.00,Wunderground v.1.15,2013-02-24 12:15:00,
2013-02-24 06:22:00,11.2,8.6,30.09,West,267,0.0,0.0,89,0.00,,,0.00,Wunderground v.1.15,2013-02-24 12:22:00,
2013-02-24 06:28:00,10.8,7.9,30.09,West,267,0.0,0.0,88,0.00,,,0.00,Wunderground v.1.15,2013-02-24 12:28:00,
2013-02-24 06:34:00,11.2,8.8,30.09,West,267,0.0,0.0,90,0.00,,,0.00,Wunderground v.1.15,2013-02-24 12:34:00,
2013-02-24 06:40:00,11.3,8.9,30.09,West,267,0.0,0.0,90,0.00,,,0.00,Wunderground v.1.15,2013-02-24 12:40:00,
2013-02-24 06:46:00,11.1,8.5,30.09,West,267,0.0,0.0,89,0.00,,,0.00,Wunderground v.1.15,2013-02-24 12:46:00,
2013-02-24 06:52:00,10.8,7.9,30.10,West,267,0.0,0.0,88,0.00,,,0.00,Wunderground v.1.15,2013-02-24 12:52:00,
2013-02-24 06:58:00,10.5,7.6,30.10,West,267,0.0,0.0,88,0.00,,,0.00,Wunderground v.1.15,2013-02-24 12:58:00,
2013-02-24 07:04:00,10.0,7.2,30.10,West,267,0.0,0.0,88,0.00,,,0.00,Wunderground v.1.15,2013-02-24 13:04:00,
2013-02-24 07:10:00,10.1,7.3,30.10,West,267,0.0,0.0,88,0.00,,,0.00,Wunderground v.1.15,2013-02-24 13:10:00,
2013-02-24 07:16:00,10.4,7.8,30.10,West,267,0.0,0.0,89,0.00,,,0.00,Wunderground v.1.15,2013-02-24 13:16:00,
2013-02-24 07:22:00,10.9,8.3,30.10,West,267,0.0,0.0,89,0.00,,,0.00,Wunderground v.1.15,2013-02-24 13:22:00,
2013-02-24 07:28:00,11.2,8.6,30.10,West,267,0.0,0.0,89,0.00,,,0.00,Wunderground v.1.15,2013-02-24 13:28:00,
2013-02-24 07:34:00,11.7,9.3,30.11,West,267,0.0,0.0,90,0.00,,,0.00,Wunderground v.1.15,2013-02-24 13:34:00,
2013-02-24 07:40:00,12.3,9.7,30.11,West,267,0.0,0.0,89,0.00,,,0.00,Wunderground v.1.15,2013-02-24 13:40:00,
2013-02-24 07:46:00,12.8,10.4,30.11,West,267,0.0,1.0,90,0.00,,,0.00,Wunderground v.1.15,2013-02-24 13:46:00,
2013-02-24 07:52:00,13.3,10.9,30.11,West,267,0.0,0.0,90,0.00,,,0.00,Wunderground v.1.15,2013-02-24 13:52:00,
2013-02-24 07:58:00,13.7,11.1,30.11,West,267,0.0,0.0,89,0.00,,,0.00,Wunderground v.1.15,2013-02-24 13:58:00,
2013-02-24 08:04:00,14.2,11.6,30.12,West,267,0.0,0.0,89,0.00,,,0.00,Wunderground v.1.15,2013-02-24 14:04:00,
2013-02-24 08:10:00,14.8,12.1,30.11,West,267,0.0,0.0,89,0.00,,,0.00,Wunderground v.1.15,2013-02-24 14:10:00,
2013-02-24 08:16:00,15.7,13.0,30.12,West,267,0.0,0.0,89,0.00,,,0.00,Wunderground v.1.15,2013-02-24 14:16:00,
2013-02-24 08:21:00,16.1,13.2,30.12,West,267,1.0,1.0,88,0.00,,,0.00,Wunderground v.1.15,2013-02-24 14:21:00,
2013-02-24 08:28:00,16.4,13.5,30.13,West,267,1.0,2.0,88,0.00,,,0.00,Wunderground v.1.15,2013-02-24 14:28:00,
2013-02-24 08:34:00,17.0,14.1,30.14,West,267,2.0,2.0,88,0.00,,,0.00,Wunderground v.1.15,2013-02-24 14:34:00,
2013-02-24 08:40:00,17.6,14.7,30.14,West,267,3.0,5.0,88,0.00,,,0.00,Wunderground v.1.15,2013-02-24 14:40:00,
2013-02-24 08:46:00,18.3,15.3,30.15,WSW,250,4.0,6.0,88,0.00,,,0.00,Wunderground v.1.15,2013-02-24 14:46:00,
2013-02-24 08:52:00,19.1,16.1,30.15,WSW,257,4.0,4.0,88,0.00,,,0.00,Wunderground v.1.15,2013-02-24 14:52:00,
2013-02-24 08:58:00,19.7,16.5,30.14,West,269,3.0,4.0,87,0.00,,,0.00,Wunderground v.1.15,2013-02-24 14:58:00,
2013-02-24 09:04:00,20.4,17.1,30.14,West,268,2.0,3.0,87,0.00,,,0.00,Wunderground v.1.15,2013-02-24 15:04:00,
2013-02-24 09:10:00,21.3,17.8,30.14,West,268,2.0,4.0,86,0.00,,,0.00,Wunderground v.1.15,2013-02-24 15:10:00,
2013-02-24 09:16:00,21.8,18.0,30.14,West,268,2.0,2.0,85,0.00,,,0.00,Wunderground v.1.15,2013-02-24 15:16:00,
2013-02-24 09:22:00,22.3,18.5,30.14,West,268,0.0,0.0,85,0.00,,,0.00,Wunderground v.1.15,2013-02-24 15:22:00,
2013-02-24 09:28:00,22.7,18.6,30.15,West,268,0.0,0.0,84,0.00,,,0.00,Wunderground v.1.15,2013-02-24 15:28:00,
2013-02-24 09:34:00,23.0,18.9,30.15,West,268,0.0,1.0,84,0.00,,,0.00,Wunderground v.1.15,2013-02-24 15:34:00,
2013-02-24 09:40:00,23.4,19.3,30.15,West,268,2.0,3.0,84,0.00,,,0.00,Wunderground v.1.15,2013-02-24 15:40:00,
2013-02-24 09:46:00,23.8,19.4,30.15,West,268,2.0,2.0,83,0.00,,,0.00,Wunderground v.1.15,2013-02-24 15:46:00,
2013-02-24 09:52:00,24.7,20.0,30.15,West,268,2.0,2.0,82,0.00,,,0.00,Wunderground v.1.15,2013-02-24 15:52:00,
2013-02-24 09:58:00,25.0,20.0,30.15,West,268,2.0,3.0,81,0.00,,,0.00,Wunderground v.1.15,2013-02-24 15:58:00,
2013-02-24 10:04:00,25.3,20.0,30.14,West,268,1.0,2.0,80,0.00,,,0.00,Wunderground v.1.15,2013-02-24 16:04:00,
2013-02-24 10:10:00,26.2,20.9,30.14,West,268,0.0,2.0,80,0.00,,,0.00,Wunderground v.1.15,2013-02-24 16:10:00,
2013-02-24 10:16:00,27.5,21.8,30.14,West,268,0.0,0.0,79,0.00,,,0.00,Wunderground v.1.15,2013-02-24 16:16:00,
2013-02-24 10:22:00,28.4,21.2,30.14,West,269,0.0,0.0,74,0.00,,,0.00,Wunderground v.1.15,2013-02-24 16:22:00,
2013-02-24 10:28:00,29.1,21.5,30.14,West,279,0.0,0.0,73,0.00,,,0.00,Wunderground v.1.15,2013-02-24 16:28:00,
2013-02-24 10:34:00,29.8,21.2,30.14,West,279,0.0,0.0,70,0.00,,,0.00,Wunderground v.1.15,2013-02-24 16:34:00,
2013-02-24 10:40:00,30.5,20.1,30.15,West,279,0.0,0.0,65,0.00,,,0.00,Wunderground v.1.15,2013-02-24 16:40:00,
2013-02-24 10:46:00,30.6,19.1,30.15,West,279,0.0,0.0,62,0.00,,,0.00,Wunderground v.1.15,2013-02-24 16:46:00,
2013-02-24 10:52:00,31.1,20.3,30.15,West,279,0.0,0.0,64,0.00,,,0.00,Wunderground v.1.15,2013-02-24 16:52:00,
2013-02-24 10:58:00,31.6,20.1,30.15,West,279,0.0,0.0,62,0.00,,,0.00,Wunderground v.1.15,2013-02-24 16:58:00,
2013-02-24 11:04:00,31.5,20.0,30.15,West,280,0.0,0.0,62,0.00,,,0.00,Wunderground v.1.15,2013-02-24 17:04:00,
2013-02-24 11:10:00,31.4,21.0,30.15,West,279,0.0,0.0,65,0.00,,,0.00,Wunderground v.1.15,2013-02-24 17:10:00,
2013-02-24 11:16:00,32.3,21.1,30.15,West,280,0.0,0.0,63,0.00,,,0.00,Wunderground v.1.15,2013-02-24 17:16:00,
2013-02-24 11:22:00,31.8,20.6,30.15,West,279,0.0,0.0,63,0.00,,,0.00,Wunderground v.1.15,2013-02-24 17:22:00,
2013-02-24 11:28:00,31.1,20.7,30.15,West,279,1.0,2.0,65,0.00,,,0.00,Wunderground v.1.15,2013-02-24 17:28:00,
2013-02-24 11:34:00,31.5,22.1,30.15,West,279,1.0,1.0,68,0.00,,,0.00,Wunderground v.1.15,2013-02-24 17:34:00,
2013-02-24 11:40:00,32.3,21.5,30.15,West,278,1.0,2.0,64,0.00,,,0.00,Wunderground v.1.15,2013-02-24 17:40:00,
2013-02-24 11:46:00,32.5,20.9,30.15,West,278,1.0,2.0,62,0.00,,,0.00,Wunderground v.1.15,2013-02-24 17:46:00,
2013-02-24 11:52:00,33.0,19.8,30.15,West,278,1.0,2.0,58,0.00,,,0.00,Wunderground v.1.15,2013-02-24 17:52:00,
2013-02-24 11:58:00,33.5,19.9,30.15,West,278,1.0,2.0,57,0.00,,,0.00,Wunderground v.1.15,2013-02-24 17:58:00,
2013-02-24 12:04:00,33.5,18.6,30.15,West,278,0.0,0.0,54,0.00,,,0.00,Wunderground v.1.15,2013-02-24 18:04:00,
2013-02-24 12:10:00,33.1,18.7,30.14,West,278,0.0,0.0,55,0.00,,,0.00,Wunderground v.1.15,2013-02-24 18:10:00,
2013-02-24 12:16:00,33.4,18.9,30.14,West,278,0.0,0.0,55,0.00,,,0.00,Wunderground v.1.15,2013-02-24 18:16:00,
2013-02-24 12:22:00,33.8,18.5,30.14,West,278,0.0,0.0,53,0.00,,,0.00,Wunderground v.1.15,2013-02-24 18:22:00,
2013-02-24 12:28:00,34.0,18.2,30.14,West,278,0.0,0.0,52,0.00,,,0.00,Wunderground v.1.15,2013-02-24 18:28:00,
2013-02-24 12:34:00,34.7,18.4,30.14,West,277,0.0,1.0,51,0.00,,,0.00,Wunderground v.1.15,2013-02-24 18:34:00,
2013-02-24 12:40:00,35.0,18.7,30.13,West,277,0.0,1.0,51,0.00,,,0.00,Wunderground v.1.15,2013-02-24 18:40:00,
2013-02-24 12:46:00,35.2,19.3,30.14,West,277,0.0,0.0,52,0.00,,,0.00,Wunderground v.1.15,2013-02-24 18:46:00,
2013-02-24 12:52:00,35.6,19.7,30.14,West,277,0.0,0.0,52,0.00,,,0.00,Wunderground v.1.15,2013-02-24 18:52:00,
2013-02-24 12:57:00,35.9,19.5,30.13,SSE,163,0.0,2.0,51,0.00,,,0.00,Wunderground v.1.15,2013-02-24 18:57:00,
2013-02-24 13:04:00,35.8,20.3,30.13,West,270,0.0,2.0,53,0.00,,,0.00,Wunderground v.1.15,2013-02-24 19:04:00,
2013-02-24 13:10:00,34.3,19.4,30.13,West,273,2.0,2.0,54,0.00,,,0.00,Wunderground v.1.15,2013-02-24 19:10:00,
2013-02-24 13:16:00,34.2,20.1,30.13,West,273,1.0,4.0,56,0.00,,,0.00,Wunderground v.1.15,2013-02-24 19:16:00,
2013-02-24 13:22:00,33.5,19.5,30.13,WNW,282,2.0,2.0,56,0.00,,,0.00,Wunderground v.1.15,2013-02-24 19:22:00,
2013-02-24 13:28:00,33.7,19.7,30.13,WNW,282,2.0,2.0,56,0.00,,,0.00,Wunderground v.1.15,2013-02-24 19:28:00,
2013-02-24 13:34:00,33.6,19.6,30.12,WNW,282,1.0,1.0,56,0.00,,,0.00,Wunderground v.1.15,2013-02-24 19:34:00,
2013-02-24 13:40:00,34.1,20.9,30.12,WNW,282,0.0,0.0,58,0.00,,,0.00,Wunderground v.1.15,2013-02-24 19:40:00,
2013-02-24 13:46:00,34.8,21.9,30.12,WNW,282,0.0,0.0,59,0.00,,,0.00,Wunderground v.1.15,2013-02-24 19:46:00,
2013-02-24 13:52:00,34.9,20.4,30.12,WNW,282,0.0,2.0,55,0.00,,,0.00,Wunderground v.1.15,2013-02-24 19:52:00,
2013-02-24 13:58:00,34.5,20.4,30.12,WNW,282,1.0,2.0,56,0.00,,,0.00,Wunderground v.1.15,2013-02-24 19:58:00,
2013-02-24 14:04:00,35.0,21.7,30.12,WNW,282,1.0,3.0,58,0.00,,,0.00,Wunderground v.1.15,2013-02-24 20:04:00,
2013-02-24 14:10:00,35.3,21.6,30.12,WNW,282,1.0,3.0,57,0.00,,,0.00,Wunderground v.1.15,2013-02-24 20:10:00,
2013-02-24 14:16:00,35.3,21.6,30.12,WNW,282,1.0,1.0,57,0.00,,,0.00,Wunderground v.1.15,2013-02-24 20:16:00,
2013-02-24 14:21:00,35.5,22.2,30.12,WNW,282,1.0,1.0,58,0.00,,,0.00,Wunderground v.1.15,2013-02-24 20:21:00,
2013-02-24 14:28:00,35.1,22.2,30.12,WNW,282,2.0,3.0,59,0.00,,,0.00,Wunderground v.1.15,2013-02-24 20:28:00,
2013-02-24 14:34:00,35.3,22.4,30.12,WNW,282,2.0,3.0,59,0.00,,,0.00,Wunderground v.1.15,2013-02-24 20:34:00,
2013-02-24 14:40:00,35.5,21.8,30.12,WNW,282,1.0,3.0,57,0.00,,,0.00,Wunderground v.1.15,2013-02-24 20:40:00,
2013-02-24 14:46:00,35.1,22.6,30.12,WNW,282,1.0,4.0,60,0.00,,,0.00,Wunderground v.1.15,2013-02-24 20:46:00,
2013-02-24 14:52:00,35.4,23.7,30.12,WNW,282,2.0,4.0,62,0.00,,,0.00,Wunderground v.1.15,2013-02-24 20:52:00,
2013-02-24 14:58:00,35.5,22.6,30.12,WNW,282,2.0,4.0,59,0.00,,,0.00,Wunderground v.1.15,2013-02-24 20:58:00,
2013-02-24 15:04:00,35.4,22.5,30.12,WNW,282,1.0,3.0,59,0.00,,,0.00,Wunderground v.1.15,2013-02-24 21:04:00,
2013-02-24 15:10:00,35.3,23.2,30.12,WNW,282,1.0,3.0,61,0.00,,,0.00,Wunderground v.1.15,2013-02-24 21:10:00,
2013-02-24 15:16:00,35.1,23.4,30.12,WNW,282,2.0,2.0,62,0.00,,,0.00,Wunderground v.1.15,2013-02-24 21:16:00,
2013-02-24 15:21:00,35.8,23.7,30.13,West,281,2.0,2.0,61,0.00,,,0.00,Wunderground v.1.15,2013-02-24 21:21:00,
2013-02-24 15:28:00,36.5,24.7,30.13,West,281,1.0,2.0,62,0.00,,,0.00,Wunderground v.1.15,2013-02-24 21:28:00,
2013-02-24 15:34:00,36.4,24.2,30.13,West,281,1.0,1.0,61,0.00,,,0.00,Wunderground v.1.15,2013-02-24 21:34:00,
2013-02-24 15:40:00,36.5,24.3,30.12,West,281,1.0,1.0,61,0.00,,,0.00,Wunderground v.1.15,2013-02-24 21:40:00,
2013-02-24 15:46:00,37.2,25.0,30.12,West,281,1.0,1.0,61,0.00,,,0.00,Wunderground v.1.15,2013-02-24 21:46:00,
2013-02-24 15:52:00,37.5,25.7,30.12,West,281,1.0,1.0,62,0.00,,,0.00,Wunderground v.1.15,2013-02-24 21:52:00,
2013-02-24 15:58:00,37.9,26.0,30.12,West,281,1.0,1.0,62,0.00,,,0.00,Wunderground v.1.15,2013-02-24 21:58:00,
2013-02-24 16:04:00,38.0,25.7,30.12,West,278,1.0,3.0,61,0.00,,,0.00,Wunderground v.1.15,2013-02-24 22:04:00,
2013-02-24 16:10:00,38.0,25.7,30.12,West,278,1.0,1.0,61,0.00,,,0.00,Wunderground v.1.15,2013-02-24 22:10:00,
2013-02-24 16:16:00,38.1,25.4,30.12,SW,222,1.0,4.0,60,0.00,,,0.00,Wunderground v.1.15,2013-02-24 22:16:00,
2013-02-24 16:22:00,37.9,25.6,30.12,SW,222,1.0,1.0,61,0.00,,,0.00,Wunderground v.1.15,2013-02-24 22:22:00,
2013-02-24 16:28:00,37.7,25.8,30.12,SW,222,0.0,1.0,62,0.00,,,0.00,Wunderground v.1.15,2013-02-24 22:28:00,
2013-02-24 16:34:00,37.2,26.1,30.12,SW,222,0.0,0.0,64,0.00,,,0.00,Wunderground v.1.15,2013-02-24 22:34:00,
2013-02-24 16:40:00,37.1,25.7,30.12,SW,222,0.0,0.0,63,0.00,,,0.00,Wunderground v.1.15,2013-02-24 22:40:00,
2013-02-24 16:46:00,37.0,26.7,30.12,SW,222,0.0,0.0,66,0.00,,,0.00,Wunderground v.1.15,2013-02-24 22:46:00,
2013-02-24 16:52:00,37.2,26.9,30.12,SW,222,0.0,0.0,66,0.00,,,0.00,Wunderground v.1.15,2013-02-24 22:52:00,
2013-02-24 16:58:00,37.3,26.6,30.12,SW,222,0.0,0.0,65,0.00,,,0.00,Wunderground v.1.15,2013-02-24 22:58:00,
2013-02-24 17:04:00,36.9,26.2,30.12,SW,222,0.0,0.0,65,0.00,,,0.00,Wunderground v.1.15,2013-02-24 23:04:00,
2013-02-24 17:10:00,36.5,25.8,30.12,SW,222,0.0,0.0,65,0.00,,,0.00,Wunderground v.1.15,2013-02-24 23:10:00,
2013-02-24 17:16:00,35.9,25.3,30.12,SW,222,0.0,0.0,65,0.00,,,0.00,Wunderground v.1.15,2013-02-24 23:16:00,
2013-02-24 17:22:00,35.3,25.1,30.12,SW,222,0.0,0.0,66,0.00,,,0.00,Wunderground v.1.15,2013-02-24 23:22:00,
2013-02-24 17:28:00,34.8,25.3,30.12,SW,222,0.0,0.0,68,0.00,,,0.00,Wunderground v.1.15,2013-02-24 23:28:00,
2013-02-24 17:34:00,34.3,25.5,30.12,SW,222,0.0,0.0,70,0.00,,,0.00,Wunderground v.1.15,2013-02-24 23:34:00,
2013-02-24 17:40:00,33.8,25.4,30.12,SW,222,0.0,0.0,71,0.00,,,0.00,Wunderground v.1.15,2013-02-24 23:40:00,
2013-02-24 17:46:00,33.3,25.6,30.12,SW,222,0.0,0.0,73,0.00,,,0.00,Wunderground v.1.15,2013-02-24 23:46:00,
2013-02-24 17:52:00,32.9,25.5,30.12,SW,222,0.0,0.0,74,0.00,,,0.00,Wunderground v.1.15,2013-02-24 23:52:00,
2013-02-24 17:58:00,32.5,25.5,30.12,SW,222,0.0,0.0,75,0.00,,,0.00,Wunderground v.1.15,2013-02-24 23:58:00,
2013-02-24 18:04:00,32.2,25.8,30.12,SW,222,0.0,0.0,77,0.00,,,0.00,Wunderground v.1.15,2013-02-25 00:04:00,
2013-02-24 18:10:00,31.8,25.4,30.13,SW,222,0.0,0.0,77,0.00,,,0.00,Wunderground v.1.15,2013-02-25 00:10:00,
2013-02-24 18:16:00,31.6,25.2,30.13,SW,222,0.0,0.0,77,0.00,,,0.00,Wunderground v.1.15,2013-02-25 00:16:00,
2013-02-24 18:22:00,31.6,24.9,30.13,SW,222,0.0,0.0,76,0.00,,,0.00,Wunderground v.1.15,2013-02-25 00:22:00,
2013-02-24 18:28:00,31.5,24.8,30.13,SW,222,0.0,0.0,76,0.00,,,0.00,Wunderground v.1.15,2013-02-25 00:28:00,
2013-02-24 18:34:00,31.3,24.9,30.13,SW,222,0.0,0.0,77,0.00,,,0.00,Wunderground v.1.15,2013-02-25 00:34:00,
2013-02-24 18:40:00,31.1,24.7,30.13,East,94,0.0,2.0,77,0.00,,,0.00,Wunderground v.1.15,2013-02-25 00:40:00,
2013-02-24 18:46:00,31.0,24.6,30.13,East,95,1.0,1.0,77,0.00,,,0.00,Wunderground v.1.15,2013-02-25 00:46:00,
2013-02-24 18:52:00,30.9,24.2,30.14,East,95,0.0,2.0,76,0.00,,,0.00,Wunderground v.1.15,2013-02-25 00:52:00,
2013-02-24 18:58:00,30.6,23.9,30.14,East,95,0.0,2.0,76,0.00,,,0.00,Wunderground v.1.15,2013-02-25 00:58:00,
2013-02-24 19:04:00,30.4,24.1,30.14,East,95,0.0,2.0,77,0.00,,,0.00,Wunderground v.1.15,2013-02-25 01:04:00,
2013-02-24 19:10:00,30.1,23.8,30.14,East,95,0.0,2.0,77,0.00,,,0.00,Wunderground v.1.15,2013-02-25 01:10:00,
2013-02-24 19:16:00,29.7,23.7,30.14,East,95,0.0,0.0,78,0.00,,,0.00,Wunderground v.1.15,2013-02-25 01:16:00,
2013-02-24 19:22:00,29.6,23.6,30.14,East,95,0.0,0.0,78,0.00,,,0.00,Wunderground v.1.15,2013-02-25 01:22:00,
2013-02-24 19:28:00,29.5,23.8,30.14,East,95,0.0,0.0,79,0.00,,,0.00,Wunderground v.1.15,2013-02-25 01:28:00,
2013-02-24 19:34:00,29.5,24.1,30.14,East,95,0.0,0.0,80,0.00,,,0.00,Wunderground v.1.15,2013-02-25 01:34:00,
2013-02-24 19:40:00,29.4,24.0,30.14,East,95,0.0,0.0,80,0.00,,,0.00,Wunderground v.1.15,2013-02-25 01:40:00,
2013-02-24 19:46:00,29.5,24.1,30.14,East,94,0.0,1.0,80,0.00,,,0.00,Wunderground v.1.15,2013-02-25 01:46:00,
2013-02-24 19:52:00,29.4,24.0,30.14,East,94,0.0,1.0,80,0.00,,,0.00,Wunderground v.1.15,2013-02-25 01:52:00,
2013-02-24 19:58:00,29.0,23.6,30.14,East,95,0.0,1.0,80,0.00,,,0.00,Wunderground v.1.15,2013-02-25 01:58:00,
2013-02-24 20:04:00,28.5,23.4,30.14,East,95,0.0,0.0,81,0.00,,,0.00,Wunderground v.1.15,2013-02-25 02:04:00,
2013-02-24 20:09:00,28.4,23.9,30.14,East,95,0.0,0.0,83,0.00,,,0.00,Wunderground v.1.15,2013-02-25 02:09:00,
2013-02-24 20:16:00,28.5,23.7,30.14,East,95,0.0,0.0,82,0.00,,,0.00,Wunderground v.1.15,2013-02-25 02:16:00,
2013-02-24 20:22:00,28.5,23.7,30.14,East,94,0.0,0.0,82,0.00,,,0.00,Wunderground v.1.15,2013-02-25 02:22:00,
2013-02-24 20:28:00,28.4,23.6,30.14,East,95,0.0,0.0,82,0.00,,,0.00,Wunderground v.1.15,2013-02-25 02:28:00,
2013-02-24 20:34:00,28.3,23.5,30.14,East,95,0.0,0.0,82,0.00,,,0.00,Wunderground v.1.15,2013-02-25 02:34:00,
2013-02-24 20:40:00,27.9,23.1,30.14,East,95,0.0,0.0,82,0.00,,,0.00,Wunderground v.1.15,2013-02-25 02:40:00,
2013-02-24 20:46:00,27.4,22.9,30.14,East,94,0.0,0.0,83,0.00,,,0.00,Wunderground v.1.15,2013-02-25 02:46:00,
2013-02-24 20:52:00,27.0,22.5,30.14,East,95,0.0,0.0,83,0.00,,,0.00,Wunderground v.1.15,2013-02-25 02:52:00,
2013-02-24 20:58:00,26.9,23.0,30.14,East,94,0.0,0.0,85,0.00,,,0.00,Wunderground v.1.15,2013-02-25 02:58:00,
2013-02-24 21:04:00,26.9,23.0,30.15,East,94,0.0,0.0,85,0.00,,,0.00,Wunderground v.1.15,2013-02-25 03:04:00,
2013-02-24 21:10:00,26.5,22.6,30.15,East,95,0.0,0.0,85,0.00,,,0.00,Wunderground v.1.15,2013-02-25 03:10:00,
2013-02-24 21:16:00,25.9,22.0,30.15,East,94,0.0,0.0,85,0.00,,,0.00,Wunderground v.1.15,2013-02-25 03:16:00,
2013-02-24 21:22:00,25.5,22.2,30.14,East,94,1.0,2.0,87,0.00,,,0.00,Wunderground v.1.15,2013-02-25 03:22:00,
2013-02-24 21:27:00,25.5,22.2,30.14,East,94,1.0,2.0,87,0.00,,,0.00,Wunderground v.1.15,2013-02-25 03:27:00,
2013-02-24 21:34:00,25.6,22.3,30.15,East,94,1.0,2.0,87,0.00,,,0.00,Wunderground v.1.15,2013-02-25 03:34:00,
2013-02-24 21:40:00,25.4,22.1,30.14,East,94,1.0,2.0,87,0.00,,,0.00,Wunderground v.1.15,2013-02-25 03:40:00,
2013-02-24 21:46:00,25.2,21.9,30.14,East,94,0.0,0.0,87,0.00,,,0.00,Wunderground v.1.15,2013-02-25 03:46:00,
2013-02-24 21:52:00,25.0,21.7,30.14,East,94,0.0,0.0,87,0.00,,,0.00,Wunderground v.1.15,2013-02-25 03:52:00,
2013-02-24 21:58:00,24.9,21.6,30.14,East,94,0.0,0.0,87,0.00,,,0.00,Wunderground v.1.15,2013-02-25 03:58:00,
2013-02-24 22:04:00,24.8,21.5,30.15,East,94,0.0,0.0,87,0.00,,,0.00,Wunderground v.1.15,2013-02-25 04:04:00,
2013-02-24 22:10:00,24.9,21.8,30.14,East,94,0.0,0.0,88,0.00,,,0.00,Wunderground v.1.15,2013-02-25 04:10:00,
2013-02-24 22:16:00,25.1,22.0,30.15,East,94,0.0,0.0,88,0.00,,,0.00,Wunderground v.1.15,2013-02-25 04:16:00,
2013-02-24 22:22:00,25.4,22.1,30.14,East,94,0.0,0.0,87,0.00,,,0.00,Wunderground v.1.15,2013-02-25 04:22:00,
2013-02-24 22:28:00,26.0,22.7,30.14,East,94,0.0,1.0,87,0.00,,,0.00,Wunderground v.1.15,2013-02-25 04:28:00,
2013-02-24 22:34:00,26.4,22.8,30.15,East,94,0.0,0.0,86,0.00,,,0.00,Wunderground v.1.15,2013-02-25 04:34:00,
2013-02-24 22:40:00,26.5,22.6,30.15,East,94,0.0,0.0,85,0.00,,,0.00,Wunderground v.1.15,2013-02-25 04:40:00,
2013-02-24 22:46:00,26.4,22.5,30.15,East,94,0.0,0.0,85,0.00,,,0.00,Wunderground v.1.15,2013-02-25 04:46:00,
2013-02-24 22:52:00,26.3,22.4,30.15,East,94,0.0,0.0,85,0.00,,,0.00,Wunderground v.1.15,2013-02-25 04:52:00,
2013-02-24 22:58:00,26.2,22.3,30.15,East,94,0.0,0.0,85,0.00,,,0.00,Wunderground v.1.15,2013-02-25 04:58:00,
2013-02-24 23:00:00,26.1,22.2,30.15,East,94,0.0,0.0,85,0.00,,,0.00,Wunderground v.1.15,2013-02-25 05:00:00,
2013-02-24 23:04:00,26.1,22.2,30.15,East,94,0.0,0.0,85,0.00,,,0.00,Wunderground v.1.15,2013-02-25 05:04:00,
2013-02-24 23:06:00,26.1,22.2,30.15,East,94,0.0,0.0,85,0.00,,,0.00,Wunderground v.1.15,2013-02-25 05:06:00,
2013-02-24 23:12:00,26.1,22.2,30.15,East,94,0.0,0.0,85,0.00,,,0.00,Wunderground v.1.15,2013-02-25 05:12:00,
2013-02-24 23:18:00,25.7,21.5,30.15,East,94,0.0,0.0,84,0.00,,,0.00,Wunderground v.1.15,2013-02-25 05:18:00,
2013-02-24 23:24:00,25.3,21.4,30.15,East,94,0.0,0.0,85,0.00,,,0.00,Wunderground v.1.15,2013-02-25 05:24:00,
2013-02-24 23:30:00,25.0,21.1,30.14,East,94,0.0,0.0,85,0.00,,,0.00,Wunderground v.1.15,2013-02-25 05:30:00,
2013-02-24 23:36:00,24.6,20.7,30.14,East,94,0.0,0.0,85,0.00,,,0.00,Wunderground v.1.15,2013-02-25 05:36:00,
2013-02-24 23:40:00,24.4,20.8,30.14,East,94,0.0,0.0,86,0.00,,,0.00,Wunderground v.1.15,2013-02-25 05:40:00,
2013-02-24 23:46:00,23.9,20.0,30.15,East,94,0.0,0.0,85,0.00,,,0.00,Wunderground v.1.15,2013-02-25 05:46:00,
2013-02-24 23:52:00,24.0,21.0,30.14,East,94,0.0,0.0,88,0.00,,,0.00,Wunderground v.1.15,2013-02-25 05:52:00,
2013-02-24 23:58:00,24.2,20.9,30.15,East,94,0.0,0.0,87,0.00,,,0.00,Wunderground v.1.15,2013-02-25 05:58:00,